Flag for Germany Weather past 2 weeks in Ingolstadt, Bavaria, Germany

Now
72 °F

Broken clouds.


Feels Like: 72 °F
Forecast: 56 / 77 °F
Wind: 3 mph from Southeast

Location: Ingolstadt Airport

Current Time: Jul 23, 2014 at 2:12:30 AM

Latest Report: Jul 22, 2014 at 6:20 PM


Visibility: N/A

Pressure: 29.92 "Hg

Humidity: 78%

Dew point: 64 °F

Location of IngolstadtLocation

Historic Weather in Ingolstadt — Graph

°F

Ingolstadt temperature yesterday

Maximum temperature yesterday: 75 °F (at 4:20 PM)
Minimum temperature yesterday: 63 °F (at 12:20 AM)
Average temperature yesterday: 67 °F

Past Weeks' High & Low Weather Summary

 TemperatureHumidityPressure
High90 °F (Jul 19, 4:20 PM)100% (Jul 8, 6:20 AM)30.18 "Hg (Jul 8, 6:20 AM)
Low54 °F (Jul 9, 6:00 AM)24% (Jul 19, 4:20 PM)29.74 "Hg (Jul 9, 6:00 AM)
Average67 °F73%29.95 "Hg
* Reported Jul 7 6:20 PM — Jul 22 6:20 PM, Ingolstadt, Weather by CustomWeather, © 2014

Note: Actual official high and low records may vary slightly from our data, if they occured in-between our weather recording intervals... More about our weather records

Advertising

Ingolstadt weather history for previous 24 hours

 ConditionsComfort  
Time TempWeatherWind HumidityBarometerVisibility
6:20 PM
Jul 22
72 °FBroken clouds.3 mph78%29.92 "HgN/A
5:20 PM70 °FBroken clouds.3 mph88%29.92 "HgN/A
5:00 PM70 °FBroken clouds.6 mph88%29.92 "HgN/A
4:20 PM75 °FSprinkles. Partly sunny.5 mph78%29.92 "Hg2 mi
3:20 PM72 °FSprinkles. Broken clouds.2 mph83%29.92 "Hg3 mi
2:20 PM70 °FLight rain. Broken clouds.5 mph88%29.92 "Hg6 mi
1:20 PM68 °FLight rain. Broken clouds.7 mph94%29.92 "Hg4 mi
12:20 PM66 °FLight rain. Partly sunny.5 mph94%29.92 "Hg4 mi
11:20 AM68 °FLight rain. Broken clouds.8 mph88%29.89 "Hg4 mi
10:20 AM66 °FBroken clouds.5 mph94%29.89 "Hg4 mi
9:20 AM66 °FFog.6 mph94%29.89 "Hg3 mi
8:20 AM64 °FFog.3 mph100%29.86 "Hg2 mi
7:20 AM64 °FFog.6 mph100%29.86 "Hg2 mi
7:02 AM64 °FFog.3 mph100%29.86 "Hg2 mi
6:20 AM64 °FDrizzle. Fog.2 mph100%29.83 "Hg2 mi
5:20 AM64 °FLight rain. Fog.2 mph94%29.83 "Hg2 mi
4:20 AM64 °FMild.No wind94%29.83 "Hg2 mi
3:20 AM64 °FMild.1 mph94%29.83 "Hg3 mi
2:20 AM64 °FMild.1 mph94%29.83 "Hg4 mi
Weather by CustomWeather, © 2014

See weather overviewHow to use our weather pages